This is the latest recevied weather packets stored in our database for station/object OH6GKW. If no packets are shown the sender has not sent any weather packets the latest 10 day(s).
| Time | Temp. | Humidity | Pressure | Rain* | Wind** | Luminosity | Snow |
|---|---|---|---|---|---|---|---|
| 1777639113 | 15° C | 51% | 1012.8 hPa | 0 mm | - | 507 W/m² | - |
| 1777638825 | 14.44° C | 51% | 1012.8 hPa | 0 mm | - | 343 W/m² | - |
| 1777638518 | 14.44° C | 52% | 1013.1 hPa | 0 mm | - | 644 W/m² | - |
| 1777638210 | 14.44° C | 53% | 1013.1 hPa | 0 mm | - | 619 W/m² | - |
| 1777637925 | 13.89° C | 54% | 1013.1 hPa | 0 mm | - | 607 W/m² | - |
| 1777637629 | 14.44° C | 54% | 1013.1 hPa | 0 mm | - | 267 W/m² | - |
| 1777637311 | 15° C | 53% | 1013.1 hPa | 0 mm | - | 545 W/m² | - |
| 1777637019 | 15° C | 52% | 1013.1 hPa | 0 mm | - | 552 W/m² | - |
| 1777636732 | 15° C | 52% | 1013.2 hPa | 0 mm | - | 649 W/m² | - |
| 1777636427 | 15° C | 53% | 1013.2 hPa | 0 mm | - | 656 W/m² | - |
| 1777636119 | 14.44° C | 53% | 1013.2 hPa | 0 mm | - | 684 W/m² | - |
| 1777635814 | 14.44° C | 52% | 1013.5 hPa | 0 mm | - | 676 W/m² | - |
| 1777635521 | 14.44° C | 51% | 1013.5 hPa | 0 mm | - | 655 W/m² | - |
| 1777635218 | 14.44° C | 53% | 1013.5 hPa | 0 mm | - | 663 W/m² | - |
| 1777634911 | 13.89° C | 53% | 1013.7 hPa | 0 mm | - | 655 W/m² | - |
| 1777634609 | 13.89° C | 53% | 1013.7 hPa | 0 mm | - | 626 W/m² | - |
| 1777634321 | 13.89° C | 53% | 1013.7 hPa | 0 mm | - | 561 W/m² | - |
| 1777634011 | 13.89° C | 52% | 1013.6 hPa | 0 mm | - | 677 W/m² | - |
| 1777633734 | 13.89° C | 52% | 1013.6 hPa | 0 mm | - | 681 W/m² | - |
| 1777633428 | 13.89° C | 51% | 1013.6 hPa | 0 mm | - | 607 W/m² | - |
| 1777633120 | 13.89° C | 51% | 1013.7 hPa | 0 mm | - | 662 W/m² | - |
| 1777632812 | 13.89° C | 52% | 1013.7 hPa | 0 mm | - | 630 W/m² | - |
| 1777632520 | 13.89° C | 51% | 1013.7 hPa | 0 mm | - | 530 W/m² | - |
| 1777632211 | 13.89° C | 51% | 1013.8 hPa | 0 mm | - | 663 W/m² | - |
| 1777631923 | 13.89° C | 52% | 1013.8 hPa | 0 mm | - | 667 W/m² | - |
* Rain since midnight (hover to see other rain measurements)
** Current wind speed in m/s (hover to see current wind gust speed)